Weather History for VOMM - October, 2013

Change the Weather History Date:

Friday, October 25, 2013

  Actual Average Record
Temperature  
Mean Temperature 83 °F -  
Max Temperature 89 °F 82 °F - (-1)
Min Temperature 77 °F 72 °F - (-1)
Cooling Degree Days 18    
Growing Degree Days 33 (Base 50)    
Moisture  
Dew Point 76 °F    
Average Humidity 79    
Maximum Humidity 89    
Minimum Humidity 59    
Precipitation  
Precipitation 0.00 in 0.53 in - ()
Sea Level Pressure  
Sea Level Pressure 29.69 in    
Wind  
Wind Speed 7 mph ()    
Max Wind Speed 12 mph    
Max Gust Speed -    
Visibility 3.2 miles    
Events Rain    
Averages and records for this station are not official NWS values.
T = Trace of Precipitation, MM = Missing Value Source: Averaged Metar Reports

Daily Weather History Graph

Daily Weather History Graph

Search for Another Location

Airport or City:

Trip Planner

Search our weather history database for the weather conditions in past years. The results will help you decide how hot, cold, wet, or windy it might be!

Date:

Astronomy

Oct. 25, 2013 Rise Set
Actual Time 6:01 AM IST 5:45 PM IST
Civil Twilight 5:39 AM IST 6:06 PM IST
Nautical Twilight 5:14 AM IST 6:32 PM IST
Astronomical Twilight 4:49 AM IST 6:56 PM IST
Moon 10:54 PM IST (10/25) 11:05 AM IST (10/25)
Length of Visible Light 12h 27m
Length of Day
11h 44m
Waning Gibbous, 66% of the Moon is Illuminated
Oct 25
Waning Gibbous
Oct 27
Last Quarter
Nov 3
New
Nov 10
First Quarter
Nov 17
Full

Hourly Weather History & Observations

Time (IST) Temp. Heat Index Dew Point Humidity Pressure Visibility Wind Dir Wind Speed Gust Speed Precip Events Conditions
12:10 AM 80.6 °F 84.6 °F 71.6 °F 74% 29.71 in 2.5 mi SSW 6.9 mph - N/A   Haze
12:40 AM 80.6 °F 85.4 °F 73.4 °F 79% 29.71 in 2.5 mi SSW 6.9 mph - N/A   Haze
1:10 AM 80.6 °F 85.4 °F 73.4 °F 79% 29.68 in 2.5 mi SSW 5.8 mph - N/A   Haze
1:40 AM 80.6 °F 85.4 °F 73.4 °F 79% 29.68 in 2.5 mi South 9.2 mph - N/A   Haze
2:10 AM 80.6 °F 86.2 °F 75.2 °F 84% 29.65 in 2.5 mi SSW 10.4 mph - N/A   Haze
2:30 AM 81 °F - 76 °F 82% 29.68 in 2 mi NNE 4.6 mph - -   Partly Cloudy
2:40 AM 80.6 °F 86.2 °F 75.2 °F 84% 29.65 in 2.5 mi South 9.2 mph - N/A   Haze
3:10 AM 80.6 °F 86.2 °F 75.2 °F 84% 29.65 in 2.5 mi SSW 9.2 mph - N/A   Haze
3:40 AM 80.6 °F 86.2 °F 75.2 °F 84% 29.65 in 2.5 mi SSW 8.1 mph - N/A   Haze
4:10 AM 80.6 °F 86.2 °F 75.2 °F 84% 29.65 in 2.5 mi South 6.9 mph - N/A Rain Light Rain
4:40 AM 80.6 °F 86.2 °F 75.2 °F 84% 29.65 in 2.5 mi SSW 6.9 mph - N/A   Haze
5:10 AM 80.6 °F 86.2 °F 75.2 °F 84% 29.65 in 2.5 mi SSW 6.9 mph - N/A   Haze
5:30 AM 80 °F - 77 °F 89% 29.71 in 2 mi South 5.8 mph - -   Partly Cloudy
5:40 AM 80.6 °F 86.2 °F 75.2 °F 84% 29.68 in 2.5 mi South 6.9 mph - N/A   Haze
6:10 AM 80.6 °F 86.2 °F 75.2 °F 84% 29.68 in 2.5 mi South 9.2 mph - N/A   Haze
6:40 AM 80.6 °F 86.2 °F 75.2 °F 84% 29.71 in 2.5 mi SSW 9.2 mph - N/A   Haze
7:10 AM 80.6 °F 86.2 °F 75.2 °F 84% 29.71 in 2.5 mi SSW 9.2 mph - N/A   Haze
7:40 AM 80.6 °F 86.2 °F 75.2 °F 84% 29.74 in 1.9 mi South 6.9 mph - N/A   Haze
8:10 AM 80.6 °F 86.2 °F 75.2 °F 84% 29.74 in 1.9 mi South 6.9 mph - N/A   Haze
8:30 AM 80 °F - 77 °F 86% 29.77 in 6 mi SE 2.3 mph - -   Overcast
8:40 AM 80.6 °F 86.2 °F 75.2 °F 84% 29.74 in 1.9 mi South 6.9 mph - N/A   Haze
9:10 AM 82.4 °F 89.5 °F 75.2 °F 79% 29.74 in 2.2 mi South 6.9 mph - N/A   Haze
9:40 AM 82.4 °F 89.5 °F 75.2 °F 79% 29.77 in 2.2 mi South 8.1 mph - N/A   Haze
10:10 AM 82.4 °F 89.5 °F 75.2 °F 79% 29.74 in 2.5 mi SSE 6.9 mph - N/A   Haze
10:40 AM 84.2 °F 92.3 °F 75.2 °F 74% 29.74 in 2.5 mi South 8.1 mph - N/A   Haze
11:10 AM 84.2 °F 92.3 °F 75.2 °F 74% 29.71 in 2.5 mi South 8.1 mph - N/A   Haze
11:30 AM 85 °F - 76 °F 68% 29.75 in 6 mi South 2.3 mph - -   Overcast
11:40 AM 86.0 °F 95.1 °F 75.2 °F 70% 29.71 in 2.5 mi South 9.2 mph - N/A   Haze
12:10 PM 86.0 °F 95.1 °F 75.2 °F 70% 29.68 in 2.8 mi South 8.1 mph - N/A   Haze
12:40 PM 87.8 °F 97.6 °F 75.2 °F 66% 29.68 in 3.7 mi South 6.9 mph - N/A   Mostly Cloudy
1:10 PM 87.8 °F 95.6 °F 73.4 °F 62% 29.65 in 3.7 mi South 5.8 mph - N/A   Mostly Cloudy
1:40 PM 87.8 °F 95.6 °F 73.4 °F 62% 29.65 in 5.0 mi SSW 6.9 mph - N/A   Mostly Cloudy
2:10 PM 87.8 °F 95.6 °F 73.4 °F 62% 29.65 in 5.0 mi South 5.8 mph - N/A   Mostly Cloudy
2:30 PM 89 °F - 77 °F 59% 29.68 in 6 mi SSW 2.3 mph - -   Overcast
2:40 PM 87.8 °F 95.6 °F 73.4 °F 62% 29.62 in 4.3 mi SE 5.8 mph - N/A   Mostly Cloudy
3:10 PM 86.0 °F 93.4 °F 73.4 °F 66% 29.62 in 3.7 mi SSE 10.4 mph - N/A   Mostly Cloudy
3:40 PM 86.0 °F 93.4 °F 73.4 °F 66% 29.62 in 3.7 mi SSE 11.5 mph - N/A   Mostly Cloudy
4:10 PM 84.2 °F 92.3 °F 75.2 °F 74% 29.62 in 3.7 mi SSE 11.5 mph - N/A   Mostly Cloudy
4:40 PM 84.2 °F 92.3 °F 75.2 °F 74% 29.62 in 3.7 mi SSE 11.5 mph - N/A   Scattered Clouds
5:10 PM 84.2 °F 92.3 °F 75.2 °F 74% 29.62 in 3.7 mi South 11.5 mph - N/A   Scattered Clouds
5:30 PM 84 °F - 78 °F 78% 29.68 in 6 mi SSE 3.5 mph - -   Scattered Clouds
5:40 PM 82.4 °F 90.9 °F 77.0 °F 84% 29.62 in 3.7 mi SSE 9.2 mph - N/A   Scattered Clouds
6:10 PM 82.4 °F 90.9 °F 77.0 °F 84% 29.62 in 3.7 mi SSE 11.5 mph - N/A   Scattered Clouds
6:40 PM 82.4 °F 90.9 °F 77.0 °F 84% 29.65 in 3.7 mi SSE 11.5 mph - N/A   Partly Cloudy
7:10 PM 82.4 °F 90.9 °F 77.0 °F 84% 29.65 in 3.7 mi SSE 10.4 mph - N/A   Partly Cloudy
7:40 PM 82.4 °F 90.9 °F 77.0 °F 84% 29.68 in 3.7 mi SSE 8.1 mph - N/A   Partly Cloudy
8:10 PM 82.4 °F 90.9 °F 77.0 °F 84% 29.68 in 3.7 mi SE 9.2 mph - N/A   Partly Cloudy
8:30 PM 83 °F - 80 °F 87% 29.74 in 2 mi SSE 3.5 mph - -   Partly Cloudy
8:40 PM 82.4 °F 92.4 °F 78.8 °F 89% 29.71 in 3.7 mi SE 6.9 mph - N/A   Partly Cloudy
9:10 PM 82.4 °F 90.9 °F 77.0 °F 84% 29.71 in 3.7 mi SSE 10.4 mph - N/A   Partly Cloudy
9:40 PM 82.4 °F 90.9 °F 77.0 °F 84% 29.71 in 3.7 mi SSE 11.5 mph - N/A   Scattered Clouds
10:40 PM 82.4 °F 90.9 °F 77.0 °F 84% 29.74 in 2.5 mi SSE 8.1 mph - N/A   Haze
11:10 PM 82.4 °F 90.9 °F 77.0 °F 84% 29.71 in 2.5 mi SSE 8.1 mph - N/A   Haze
11:30 PM 83 °F - 79 °F 83% 29.75 in 2 mi SSE 3.5 mph - -   Partly Cloudy
11:40 PM 82.4 °F 90.9 °F 77.0 °F 84% 29.71 in 2.5 mi SSE 8.1 mph - N/A   Haze